Starlink 2435

operational
NORAD ID: 47843 Int'l Des: 2021-018 Owner: SPXS Country: US Constellation: starlink
LEOCIRCULARSTARLINK_TYPE

Starlink 2435について

説明を読み込み中...

リアルタイム位置

3D地球を読み込み中...

次回通過

高度履歴

Altitude vs Time

uPlot chart will show altitude changes over time

軌道要素

1 47843U 21018BJ 25354.41393823 .00001095 00000-0 92404-4 0 9998
2 47843 53.0538 252.4986 0001559 91.3092 268.8076 15.06404351264594
Epoch: Dec 20, 2025 • Age: 10 hours

現在のステータス

高度 547.1 km
速度 7.59 km/s
衛星直下点 18.27°N, 118.5°W
打ち上げ日 Mar 11, 2021
運用期間 4.7 years
タイプ internet

技術仕様

分類 Payload
質量 260.00 kg
乾燥質量 248.00 kg
総質量 260.00 kg
長さ 0.20 m
直径 2.80 m
スパン 9.00 m
形状 Box + pan
製造者 SPXS
バスタイプ Starlink
フェーズステータス In Orbit
所有者/国 SPXS/US

大規模コンステレーション

Loading constellations...